Location: Godzisko
(49.9648°N, 19.4576°E)
Time: 07:24:40
(UTC+00:00)

CZ-4B R/B - Pass Details

Date: 20 April 2021
Orbit: 702 x 803 km, 98.9° (Epoch: 06 May)

Event Time Altitude Azimuth Distance (km) Brightness Sun altitude
Rises 02:49:41 0° 8° (N) 3,104 7.2 -8.1°
Reaches altitude 10° 02:52:05 10° 359° (N) 2,182 6.3 -7.8°
Maximum altitude 02:56:20 34° 296° (WNW) 1,171 4.2 -7.2°
Drops below altitude 10° 03:00:37 10° 233° (SW) 2,190 5.2 -6.6°
Enters shadow 03:01:17 - 230° (SW) 2,438 5.5 -6.5°
